Weather Roundup
Issued by NWS

Home | Current Version | Previous Version | Graphics & Text | Print | Product List | Glossary Off
Versions: 1 2 3 4 5 6 7 8 9 10 11 12 13 14 15 16 17 18 19 20 21 22 23 24 25 26 27 28 29 30 31 32 33 34 35 36 37 38 39 40 41 42 43 44 45 46 47 48 49 50

000
NZUS93 KARX 010059
HRRWXR

CURRENT HOURLY OBSERVATIONS ACROSS
MUCH OF THE UPPER MISSISSIPPI VALLEY
NATIONAL WEATHER SERVICE LA CROSSE WI
800 PM CDT TUE SEP 30 2014


...SOUTHEAST MINNESOTA...


CITY           SKY/WX    TMP DP  RH WIND       PRES   REMARKS
ROCHESTER      PTCLDY    52  46  80 SE10      29.94S
ROCHESTER/MAYO FAIR      52  45  77 E10       29.94R
WINONA         PTCLDY    50  45  81 SE8       29.98R
AUSTIN         CLOUDY    55  46  71 SE8       29.91F
ALBERT LEA     CLOUDY    57  48  72 SE6       29.90S
DODGE CENTER   PTCLDY    54  46  76 SE12      29.92S
PRESTON        PTCLDY    51  45  78 SE10      29.96R
OWATONNA       MOCLDY    55  46  71 SE5       29.92R
FARIBAULT      MOCLDY    55  48  76 SE7       29.93R
$$

...ELSEWHERE IN MINNESOTA...


CITY           SKY/WX    TMP DP  RH WIND       PRES   REMARKS
MINNEAPOLIS    CLOUDY    54  44  69 SE12      29.93R
INTNL FALLS    MOCLDY    49  42  77 E10       29.86F
DULUTH         CLOUDY    45  41  86 E18G25    29.95F
RED WING       PTCLDY    54  45  71 SE9       29.93S
REDWOOD FALLS  CLOUDY    59  54  83 SE15G23   29.78S
MANKATO        CLOUDY    61  48  63 SE17G23   29.88S
WORTHINGTON    CLOUDY    59  57  94 SE13G21   29.81R
FAIRMONT       CLOUDY    59  54  82 SE17G23   29.82S
$$

...SOUTHWEST WISCONSIN...


CITY           SKY/WX    TMP DP  RH WIND       PRES   REMARKS
LA CROSSE      PTCLDY    50  43  77 E7        29.99R
PRAIRIE DU CHI PTCLDY    52  43  71 E8        29.99R
BOSCOBEL       PTCLDY    49  43  80 VRB3      30.02R
LONE ROCK      MOCLDY    50  41  71 E9        30.02R
PLATTEVILLE    PTCLDY    47  44  87 E7        30.00S
FORT MC COY    CLOUDY    47  41  80 SE5       30.02R
CAMP DOUGLAS   CLOUDY    47  46  99 SE9       30.03R
VIROQUA        CLOUDY    47  43  87 SE8       29.99R
WIS DELLS      CLOUDY    47  41  80 E9        30.03R
$$

...ELSEWHERE IN WISCONSIN...


CITY           SKY/WX    TMP DP  RH WIND       PRES   REMARKS
MILWAUKEE      DRIZZLE   50  48  93 N7        30.04R
MADISON        MOCLDY    46  41  82 NE6       30.02F
GREEN BAY      CLOUDY    48  44  86 E6        30.06S
EAU CLAIRE     NOT AVBL
BLACK RVR FLS  CLOUDY    47  42  81 SE7       30.00R
MEDFORD        MOCLDY    46  42  85 SE6       30.00S
WAUSAU         MOCLDY    46  41  82 SE6       30.02R
WIS RAPIDS     CLOUDY    47  41  80 SE8       30.04S
MARSHFIELD     CLOUDY    48  42  80 SE12      30.01S
RICE LAKE      PTCLDY    51  43  75 SE7       29.97F
$$

...NORTHEAST IOWA...


CITY           SKY/WX    TMP DP  RH WIND       PRES   REMARKS
DECORAH        CLOUDY    52  46  82 E9        29.96S
MASON CITY     CLOUDY    60  51  72 SE10      29.91S
CHARLES CITY   MOCLDY    57  48  72 E10       29.94R
OELWEIN        MOCLDY    55  46  71 E9        29.95S
$$

...ELSEWHERE IN IOWA...


CITY           SKY/WX    TMP DP  RH WIND       PRES   REMARKS
DES MOINES     CLOUDY    68  58  70 E12       29.84S
IOWA CITY      PTCLDY    60  52  74 E9        29.93F
FORT DODGE     CLOUDY    61  57  88 E5        29.89F
$$

...NORTHERN ILLINOIS...


CITY           SKY/WX    TMP DP  RH WIND       PRES   REMARKS
CHICAGO-OHARE  CLOUDY    53  49  86 N5        30.01S
CHICAGO-MIDWAY NOT AVBL
MOLINE         NOT AVBL
ROCKFORD       NOT AVBL
PEORIA         CLEAR     63  49  60 E13       29.96R
$$

NOTE: "FAIR" INDICATES FEW OR NO CLOUDS BELOW 12,000 FEET WITH NO
SIGNIFICANT WEATHER AND/OR OBSTRUCTIONS TO VISIBILITY. WIND
SPEEDS ARE IN MILES-PER-HOUR.



USA.gov is the U.S. government's official web portal to all federal, state and local government web resources and services.